Weather History for Columbus, OH

Change the Weather History Date:

Wednesday, September 4, 2013

  Actual Average Record
Temperature  
Mean Temperature 68 °F 71 °F  
Max Temperature 83 °F 81 °F 96 °F (1953)
Min Temperature 53 °F 61 °F 44 °F (1997)
Degree Days  
Heating Degree Days 0 1  
Month to date heating degree days 2 2  
Since 1 July heating degree days 6 2  
Cooling Degree Days 3 7  
Month to date cooling degree days 29 28  
Year to date cooling degree days 1030 917  
Growing Degree Days 18 (Base 50)    
Moisture  
Dew Point 55 °F    
Average Humidity 65    
Maximum Humidity 93    
Minimum Humidity 37    
Precipitation  
Precipitation 0.00 in 0.10 in 1.10 in (2011)
Month to date precipitation T 0.41  
Year to date precipitation 26.64 28.10  
Snow  
Snow 0.00 in 0.00 in 0.00 in ()
Month to date snowfall 0.0 0.0  
Since 1 July snowfall 0.0 0.0  
Since 1 September snowfall 0.0 0.0  
Snow Depth 0.00 in    
Sea Level Pressure  
Sea Level Pressure 30.10 in    
Wind  
Wind Speed 2 mph (WSW)    
Max Wind Speed 16 mph    
Max Gust Speed 28 mph    
Visibility 9 miles    
Events      
T = Trace of Precipitation, MM = Missing Value Source: NWS Daily Summary

Daily Weather History Graph

Daily Weather History Graph

Search for Another Location

Airport:

Trip Planner

Search our weather history database for the weather conditions in past years. The results will help you decide how hot, cold, wet, or windy it might be!

Date:

Astronomy

Sep. 04, 2013 Rise Set
Actual Time 7:02 AM EDT 7:57 PM EDT
Civil Twilight 6:34 AM EDT 8:25 PM EDT
Nautical Twilight 6:01 AM EDT 8:58 PM EDT
Astronomical Twilight 5:27 AM EDT 9:31 PM EDT
Moon 6:13 AM EDT (9/4) 7:16 PM EDT (9/4)
Length of Visible Light 13h 50m
Length of Day
12h 55m
Waning Crescent, 1% of the Moon is Illuminated
Sep 4
Waning Crescent
Sep 5
New
Sep 12
First Quarter
Sep 19
Full
Sep 26
Last Quarter

Hourly Weather History & Observations

Time (EDT) Temp. Heat Index Dew Point Humidity Pressure Visibility Wind Dir Wind Speed Gust Speed Precip Events Conditions
12:51 AM 57.9 °F - 53.1 °F 84% 30.07 in 10.0 mi Calm Calm - N/A   Clear
1:51 AM 57.9 °F - 53.1 °F 84% 30.08 in 10.0 mi Calm Calm - N/A   Clear
2:51 AM 55.9 °F - 54.0 °F 93% 30.08 in 10.0 mi Calm Calm - N/A   Clear
3:51 AM 54.0 °F - 52.0 °F 93% 30.09 in 10.0 mi Calm Calm - N/A   Clear
4:51 AM 54.0 °F - 52.0 °F 93% 30.10 in 7.0 mi Calm Calm - N/A   Clear
5:51 AM 55.0 °F - 52.0 °F 89% 30.11 in 9.0 mi Calm Calm - N/A   Clear
6:51 AM 54.0 °F - 52.0 °F 93% 30.12 in 7.0 mi Calm Calm - N/A   Clear
7:51 AM 55.9 °F - 52.0 °F 87% 30.13 in 7.0 mi Calm Calm - N/A   Clear
8:51 AM 59.0 °F - 55.0 °F 87% 30.14 in 7.0 mi Calm Calm - N/A   Clear
9:51 AM 64.0 °F - 55.9 °F 75% 30.14 in 8.0 mi Calm Calm - N/A   Clear
10:51 AM 70.0 °F - 55.9 °F 61% 30.14 in 10.0 mi South 3.5 mph - N/A   Clear
11:51 AM 73.0 °F - 55.9 °F 55% 30.14 in 10.0 mi South 3.5 mph - N/A   Clear
12:51 PM 75.9 °F - 55.9 °F 50% 30.12 in 10.0 mi Calm Calm - N/A   Partly Cloudy
1:51 PM 78.1 °F - 55.9 °F 46% 30.11 in 10.0 mi Calm Calm - N/A   Partly Cloudy
2:51 PM 80.1 °F 80.1 °F 55.0 °F 42% 30.09 in 10.0 mi Variable 4.6 mph - N/A   Scattered Clouds
3:51 PM 81.0 °F 80.8 °F 55.9 °F 42% 30.09 in 10.0 mi West 16.1 mph 27.6 mph N/A   Scattered Clouds
4:51 PM 82.0 °F 81.3 °F 54.0 °F 38% 30.08 in 10.0 mi NW 8.1 mph - N/A   Scattered Clouds
5:51 PM 81.0 °F 80.7 °F 55.0 °F 41% 30.07 in 10.0 mi WNW 4.6 mph - N/A   Partly Cloudy
6:51 PM 80.1 °F 80.0 °F 54.0 °F 40% 30.07 in 10.0 mi WNW 9.2 mph - N/A   Scattered Clouds
7:51 PM 77.0 °F - 55.0 °F 47% 30.06 in 10.0 mi West 6.9 mph - N/A   Scattered Clouds
8:51 PM 75.9 °F - 57.0 °F 52% 30.08 in 10.0 mi WSW 5.8 mph - N/A   Scattered Clouds
9:51 PM 73.9 °F - 57.9 °F 57% 30.09 in 10.0 mi SW 6.9 mph - N/A   Partly Cloudy
10:51 PM 72.0 °F - 57.9 °F 61% 30.10 in 10.0 mi SW 3.5 mph - N/A   Partly Cloudy
11:51 PM 70.0 °F - 57.9 °F 65% 30.10 in 10.0 mi Calm Calm - N/A   Partly Cloudy